Port Isabel, TX

1:46 PM CST on November 21, 2017 (GMT -0600)
Port Isabel-Cameron County

Weather History for KPIL - November, 2012

Change the Weather History Date:

Monday, November 12, 2012

  Actual Average (KBRO) Record (KBRO)
Temperature  
Mean Temperature 67 °F -  
Max Temperature 73 °F 77 °F 90 °F (1964)
Min Temperature 60 °F 59 °F 36 °F (1907)
Cooling Degree Days 2    
Growing Degree Days 17 (Base 50)    
Moisture  
Dew Point 57 °F    
Average Humidity 69    
Maximum Humidity 93    
Minimum Humidity 44    
Precipitation  
Precipitation 0.19 in - - ()
Sea Level Pressure  
Sea Level Pressure 30.22 in    
Wind  
Wind Speed 12 mph (North)    
Max Wind Speed 30 mph    
Max Gust Speed 39 mph    
Visibility 8 miles    
Events Rain    
Averages and records for this station are not official NWS values.
T = Trace of Precipitation, MM = Missing Value Source: NWS Daily Summary

Daily Weather History Graph

Daily Weather History Graph

Search for Another Location

Airport or City:

Trip Planner

Search our weather history database for the weather conditions in past years. The results will help you decide how hot, cold, wet, or windy it might be!

Date:

Astronomy

Nov. 12, 2012 Rise Set
Actual Time 6:46 AM CST 5:40 PM CST
Civil Twilight 6:21 AM CST 6:05 PM CST
Nautical Twilight 5:54 AM CST 6:32 PM CST
Astronomical Twilight 5:26 AM CST 7:00 PM CST
Moon 5:17 AM CST (11/12) 4:44 PM CST (11/12)
Length of Visible Light 11h 43m
Length of Day
10h 54m
Waning Crescent, 2% of the Moon is Illuminated
Nov 12
Waning Crescent
Nov 13
New
Nov 20
First Quarter
Nov 28
Full
Dec 6
Last Quarter

Hourly Weather History & Observations

Time (CST) Temp. Dew Point Humidity Pressure Visibility Wind Dir Wind Speed Gust Speed Precip Events Conditions
12:53 AM 73.0 °F 69.1 °F 87% 30.05 in 7.0 mi Calm Calm - N/A   Clear
1:53 AM 72.0 °F 68.0 °F 87% 30.05 in 7.0 mi Calm Calm - N/A   Clear
2:53 AM 72.0 °F 69.1 °F 91% 30.05 in 6.0 mi Calm Calm - N/A   Partly Cloudy
3:53 AM 71.1 °F 69.1 °F 93% 30.06 in 6.0 mi NNW 3.5 mph - N/A   Clear
4:53 AM 71.1 °F 68.0 °F 90% 30.07 in 6.0 mi NW 4.6 mph - N/A   Clear
5:36 AM 73.4 °F 69.8 °F 88% 30.09 in 6.0 mi North 11.5 mph - N/A   Overcast
5:53 AM 72.0 °F 68.0 °F 87% 30.11 in 2.5 mi NNE 15.0 mph 28.8 mph 0.07 in Rain Heavy Rain
6:07 AM 71.6 °F 66.2 °F 83% 30.12 in 8.0 mi North 19.6 mph 25.3 mph 0.02 in Rain Light Rain
6:50 AM 71.6 °F 60.8 °F 69% 30.14 in 10.0 mi North 20.7 mph 29.9 mph 0.02 in   Overcast
6:53 AM 71.1 °F 61.0 °F 70% 30.14 in 10.0 mi North 20.7 mph 29.9 mph 0.02 in   Overcast
7:53 AM 71.1 °F 61.0 °F 70% 30.19 in 9.0 mi NNE 29.9 mph 38.0 mph N/A   Overcast
8:53 AM 71.1 °F 57.9 °F 63% 30.24 in 8.0 mi North 23.0 mph 39.1 mph N/A   Overcast
9:53 AM 73.0 °F 57.0 °F 57% 30.28 in 9.0 mi North 27.6 mph 35.7 mph N/A   Overcast
10:53 AM 72.0 °F 57.0 °F 59% 30.29 in 9.0 mi North 26.5 mph 36.8 mph N/A   Overcast
11:26 AM 64.4 °F 57.2 °F 77% 30.29 in 1.8 mi North 24.2 mph 33.4 mph 0.05 in Rain Heavy Rain
11:42 AM 64.4 °F 57.2 °F 77% 30.28 in 3.0 mi North 21.9 mph 31.1 mph 0.10 in Rain Light Rain
11:53 AM 64.9 °F 57.0 °F 75% 30.28 in 9.0 mi NNE 24.2 mph 34.5 mph 0.10 in Rain Light Rain
12:53 PM 69.1 °F 54.0 °F 58% 30.27 in 9.0 mi NNE 20.7 mph 29.9 mph 0.00 in   Overcast
1:53 PM 69.1 °F 52.0 °F 54% 30.28 in 10.0 mi North 18.4 mph 27.6 mph N/A   Overcast
2:53 PM 69.1 °F 53.1 °F 57% 30.29 in 10.0 mi North 17.3 mph 26.5 mph N/A   Overcast
3:53 PM 69.1 °F 54.0 °F 58% 30.28 in 10.0 mi North 16.1 mph 23.0 mph N/A   Overcast
4:53 PM 68.0 °F 55.0 °F 63% 30.29 in 10.0 mi North 16.1 mph 24.2 mph N/A   Overcast
5:53 PM 66.9 °F 53.1 °F 61% 30.32 in 10.0 mi North 15.0 mph 21.9 mph N/A   Overcast
6:53 PM 66.9 °F 52.0 °F 59% 30.32 in 10.0 mi North 13.8 mph - 0.00 in   Overcast
7:53 PM 66.0 °F 53.1 °F 63% 30.33 in 10.0 mi North 11.5 mph - N/A   Overcast
8:53 PM 62.1 °F 44.1 °F 52% 30.35 in 10.0 mi NNW 13.8 mph - N/A   Partly Cloudy
9:53 PM 62.1 °F 41.0 °F 46% 30.36 in 10.0 mi NNW 13.8 mph - N/A   Scattered Clouds
10:53 PM 61.0 °F 39.0 °F 44% 30.35 in 10.0 mi NNW 10.4 mph 23.0 mph N/A   Mostly Cloudy
11:53 PM 60.1 °F 41.0 °F 49% 30.34 in 10.0 mi NNW 11.5 mph - N/A   Scattered Clouds